This is the latest recevied weather packets stored in our database for station/object WE0DX-1. If no packets are shown the sender has not sent any weather packets the latest 10 day(s).
| Time | Temp. | Humidity | Pressure | Rain* | Wind** | Luminosity | Snow |
|---|---|---|---|---|---|---|---|
| 1777860034 | 21.67° C | 47% | 1007.3 hPa | 0 mm | - | 0 W/m² | - |
| 1777859730 | 21.67° C | 47% | 1007.1 hPa | 0 mm | - | 0 W/m² | - |
| 1777859426 | 21.67° C | 47% | 1007.4 hPa | 0 mm | - | 0 W/m² | - |
| 1777859123 | 21.67° C | 47% | 1007.1 hPa | 0 mm | - | 0 W/m² | - |
| 1777858820 | 21.67° C | 46% | 1007.2 hPa | 0 mm | - | 0 W/m² | - |
| 1777858518 | 21.67° C | 48% | 1007.1 hPa | 0 mm | - | 0 W/m² | - |
| 1777858215 | 22.22° C | 47% | 1007 hPa | 0 mm | - | 0 W/m² | - |
| 1777857912 | 22.22° C | 47% | 1007.1 hPa | 0 mm | - | 0 W/m² | - |
| 1777857609 | 22.22° C | 46% | 1007.1 hPa | 0 mm | - | 0 W/m² | - |
| 1777857306 | 22.22° C | 45% | 1007.2 hPa | 0 mm | - | 0 W/m² | - |
| 1777857001 | 22.78° C | 44% | 1007.1 hPa | 0 mm | - | 0 W/m² | - |
| 1777856698 | 22.78° C | 44% | 1007 hPa | 0 mm | - | 2 W/m² | - |
| 1777856393 | 22.78° C | 44% | 1007.3 hPa | 0 mm | - | 4 W/m² | - |
| 1777856091 | 22.78° C | 46% | 1007.3 hPa | 0 mm | - | 6 W/m² | - |
| 1777855788 | 23.89° C | 42% | 1007.3 hPa | 0 mm | - | 9 W/m² | - |
| 1777855486 | 23.89° C | 41% | 1007.2 hPa | 0 mm | - | 9 W/m² | - |
| 1777855183 | 23.89° C | 40% | 1007.1 hPa | 0 mm | - | 12 W/m² | - |
| 1777854879 | 23.89° C | 40% | 1007.1 hPa | 0 mm | - | 17 W/m² | - |
| 1777854576 | 23.89° C | 39% | 1007.1 hPa | 0 mm | - | 18 W/m² | - |
| 1777854273 | 23.89° C | 40% | 1007.3 hPa | 0 mm | - | 19 W/m² | - |
| 1777853970 | 24.44° C | 39% | 1007.3 hPa | 0 mm | - | 22 W/m² | - |
| 1777853667 | 24.44° C | 38% | 1007.3 hPa | 0 mm | - | 20 W/m² | - |
| 1777853364 | 25° C | 37% | 1007.2 hPa | 0 mm | - | 21 W/m² | - |
| 1777853061 | 25° C | 36% | 1007.5 hPa | 0 mm | - | 26 W/m² | - |
| 1777852758 | 25° C | 36% | 1007.6 hPa | 0 mm | - | 24 W/m² | - |
* Rain latest hour (hover to see other rain measurements)
** Current wind speed in m/s (hover to see current wind gust speed)